[[{"header":{"parameterUnit":"m.s-1","parameterCategory":1,"la1":30.2991,"la2":30.254,"lo1":-89.0895,"lo2":-89.0444,"dy":0.0017,"dx":0.0017,"nx":28,"ny":28,"refTime":"2025-07-13T09:00:00:Z","depth":0,"parameterNumber":2,"parameterNumberName":"U-component_of_WINDS"},"data":[0,0,0,0,0,0,0,0,0,0,0,0,0,0,0,0,0,0,0,0,0,0,0,0,0,0,0,0,0,0,0,0,0,0,0,0,0,0,0,0,0,0,0,0,0,0,0,0,0,0,0,0,0,0,0,0,0,0,4.068,4.0681,0,4.0819,4.0821,4.0822,4.0772,4.0769,4.0766,4.0763,4.0905,4.0911,4.0918,0,0,0,0,0,0,0,0,0,0,0,0,0,4.0367,4.0373,4.068,4.0682,4.0683,4.0819,4.0821,4.0823,4.0773,4.0769,4.0765,4.0761,4.0902,4.091,4.0918,0,0,0,0,0,0,0,0,0,0,0,0,0,4.0504,4.0375,4.0679,4.0675,4.0676,4.0819,4.0821,4.0823,4.0773,4.0769,4.0764,4.076,4.09,4.091,4.092,4.1076,0,0,4.095,4.0955,0,0,0,0,0,0,0,0,4.0497,4.0516,4.0674,4.0675,4.0677,4.0773,4.0763,4.0908,4.0775,4.0736,4.0763,4.0757,4.0865,4.0877,4.0914,4.1082,4.1088,4.0951,4.0957,4.0962,4.0964,0,0,0,0,0,0,0,4.0487,4.051,4.0735,4.0676,4.0678,4.0664,4.0679,4.079,4.0825,4.0739,4.0736,4.0753,4.0865,4.0904,4.0917,4.109,4.0951,4.096,4.0966,4.097,4.139,4.1395,0,0,0,0,0,0,4.0477,4.0502,4.073,4.0739,4.0573,4.0674,4.069,4.0747,4.0824,4.0831,4.0757,4.075,4.0889,4.0905,4.0922,4.1107,4.0961,4.0971,4.0977,4.1385,4.1392,4.1397,0,0,0,0,0,0,4.0471,4.0498,4.0725,4.062,4.0648,4.0684,4.0749,4.0752,4.0792,4.0837,4.0843,4.0791,4.0886,4.0907,4.1037,4.1111,4.0975,4.0985,4.1379,4.1387,4.1394,4.1481,0,0,0,0,0,0,4.0462,4.0496,4.0557,4.0622,4.0653,4.0839,4.0754,4.0758,4.0809,4.0802,4.0871,4.0878,4.0884,4.1022,4.1047,4.1123,4.0992,4.1373,4.1383,4.1392,4.1472,4.1491,4.1507,0,0,0,0,0,4.0451,4.0576,4.056,4.0588,4.073,4.0844,4.0862,4.0867,4.0816,4.0876,4.0905,4.0876,4.11,4.1036,4.1063,4.1143,4.1368,4.138,4.1391,4.1464,4.1487,4.1507,0,0,0,0,0,0,4.0519,4.0585,4.0568,4.0717,4.0775,4.0835,4.0911,4.0892,4.0965,4.0955,4.0958,4.0974,4.1107,4.1138,4.1066,4.1297,4.1226,4.1244,4.1272,4.1294,4.1312,4.1301,4.1001,0,0,0,0,0,4.0552,4.0639,4.0691,4.0818,4.0848,4.0875,4.0925,4.0923,4.0983,4.1008,4.1046,4.1105,4.1188,4.1243,4.1322,4.1476,4.1489,4.1544,4.1562,4.1576,4.1591,4.1672,4.1697,4.1435,4.1435,4.1435,0,0,4.062,4.0666,4.0721,4.0833,4.0878,4.0967,4.0896,4.0994,4.106,4.1022,4.1147,4.1177,4.1242,4.1384,4.1448,4.1414,4.1666,4.1591,4.1602,4.1609,4.1687,4.1711,4.1733,4.1443,4.1442,4.144,0,0,4.0789,4.0834,4.0943,4.0989,4.1057,4.1074,4.11,4.1163,4.1181,4.1306,4.1279,4.1357,4.1501,4.1548,4.1591,4.1776,4.1751,4.1801,4.1894,4.1973,4.1993,4.2011,4.2075,4.2098,4.1816,4.1816,4.1817,0,4.0864,4.0999,4.1002,4.1102,4.1151,4.112,4.123,4.1275,4.1366,4.14,4.136,4.1538,4.1581,4.1732,4.1777,4.1813,4.1842,4.1793,4.199,4.2008,4.2025,4.2086,4.211,4.1822,4.1821,4.1821,4.182,0,4.1087,4.118,4.1261,4.1348,4.1406,4.1511,4.1529,4.1587,4.158,4.1601,4.1726,4.1776,4.1864,4.19,4.1895,4.205,4.2026,4.1989,4.1917,4.2056,4.2113,4.2136,4.183,4.1828,4.1826,4.1825,0,0,4.1304,4.1391,4.142,4.1458,4.1531,4.1602,4.1704,4.179,4.1839,4.1902,4.1987,4.2108,4.2073,4.2122,4.2122,4.2191,4.2331,4.2145,4.2146,4.2176,4.2503,4.2529,4.2556,4.2315,4.232,4.2324,4.2496,0,4.1478,4.1657,4.1662,4.1826,4.1911,4.1882,4.1971,4.2024,4.2045,4.212,4.2143,4.2228,4.2177,4.2205,4.2273,4.23,4.2397,4.2288,4.2393,4.2396,4.2376,4.2587,4.2616,4.2777,4.2519,4.2523,4.2526,0,4.1705,4.1774,4.1946,4.2004,4.204,4.212,4.2197,4.2269,4.2328,4.2338,4.2391,4.238,4.2483,4.2408,4.2549,4.2474,4.2517,4.2537,4.2543,4.2552,4.2469,4.26,4.2828,4.2852,4.2561,4.2558,4.2556,0,4.1843,4.198,4.21,4.2134,4.2205,4.2261,4.2293,4.2347,4.2397,4.2465,4.2497,4.2576,4.2619,4.268,4.2689,4.2635,4.2829,4.2756,4.2839,4.2839,4.2881,4.2878,4.3118,4.2911,4.2911,4.291,4.291,0,4.2036,4.2142,4.2163,4.2237,4.2354,4.2357,4.2473,4.25,4.2549,4.2626,4.2607,4.2679,4.2688,4.2763,4.2772,4.2885,4.2905,4.2915,4.2916,4.2916,4.2915,4.2944,4.2932,4.2917,4.2915,4.2914,4.2913,0,4.2211,4.2229,4.2358,4.2413,4.243,4.2514,4.2561,4.263,4.2649,4.2747,4.277,4.2799,4.2886,4.2902,4.3005,4.301,4.3145,4.3135,4.3125,4.3124,4.3205,4.3196,4.3471,4.3506,4.3278,4.328,4.3282,0,4.2332,4.2412,4.2476,4.2527,4.2561,4.2643,4.2694,4.27,4.2753,4.2825,4.2886,4.2971,4.3039,4.3179,4.3208,4.3286,4.3277,4.3368,4.3289,4.3286,4.3276,4.3271,4.3278,4.3383,4.3385,4.3387,4.3389,0,4.2544,4.2549,4.2623,4.27,4.2761,4.2822,4.288,4.2922,4.2935,4.2996,4.3084,4.3137,4.3241,4.3325,4.3402,4.3434,4.3413,4.3414,4.3436,4.3437,4.3427,4.3432,4.3165,4.3407,4.3405,4.3404,4.3403,4.3402,4.2695,4.2764,4.2819,4.2902,4.2945,4.2999,4.3067,4.3093,4.3167,4.3252,4.3251,4.3347,4.3401,4.3503,4.3539,4.3614,4.3585,4.3619,4.3627,4.3635,4.3641,4.3416,4.3628,4.3628,4.3627,4.3627,4.3626,0,4.2905,4.2938,4.3014,4.3095,4.3159,4.3134,4.3196,4.3251,4.3336,4.3389,4.3455,4.3556,4.3636,4.3672,4.375,4.3803,4.3796,4.3823,4.3819,4.3826,4.3664,4.3635,4.3828,4.3828,4.3828,4.3828,4.3828,4.3828,4.3021,4.3137,4.3147,4.3283,4.3316,4.341,4.3447,4.3495,4.3537,4.365,4.3716,4.3739,4.3784,4.3865,4.3937,4.3946,4.3975,4.4007,4.401,4.3858,4.3838,4.3818,4.3791,4.4013,4.4014,4.4166,4.4167,4.4168]},{"header":{"parameterUnit":"m.s-1","parameterCategory":1,"la1":30.2991,"la2":30.254,"lo1":-89.0895,"lo2":-89.0444,"dy":0.0017,"dx":0.0017,"nx":28,"ny":28,"refTime":"2025-07-13T09:00:00:Z","depth":0,"parameterNumber":3,"parameterNumberName":"V-component_of_WINDS"},"data":[0,0,0,0,0,0,0,0,0,0,0,0,0,0,0,0,0,0,0,0,0,0,0,0,0,0,0,0,0,0,0,0,0,0,0,0,0,0,0,0,0,0,0,0,0,0,0,0,0,0,0,0,0,0,0,0,0,0,0.1074,0.1074,0,0.1016,0.1016,0.1015,0.0958,0.0957,0.0957,0.0956,0.0899,0.0899,0.0898,0,0,0,0,0,0,0,0,0,0,0,0,0,0.1137,0.1136,0.1075,0.1074,0.1073,0.1017,0.1016,0.1015,0.0958,0.0957,0.0956,0.0956,0.09,0.0899,0.0898,0,0,0,0,0,0,0,0,0,0,0,0,0,0.1098,0.1136,0.1075,0.1038,0.1034,0.1017,0.1016,0.1015,0.0959,0.0957,0.0956,0.0955,0.09,0.0899,0.0898,0.0913,0,0,0.0894,0.0893,0,0,0,0,0,0,0,0,0.11,0.1096,0.1044,0.104,0.1036,0.0993,0.1017,0.0981,0.0959,0.0987,0.0956,0.0955,0.0932,0.0928,0.092,0.091,0.0908,0.0894,0.0893,0.0893,0.0892,0,0,0,0,0,0,0,0.1103,0.1098,0.1052,0.1043,0.1038,0.1025,0.1018,0.101,0.0967,0.0985,0.098,0.0974,0.0929,0.0921,0.0918,0.0907,0.0894,0.0893,0.0892,0.0892,0.0906,0.0907,0,0,0,0,0,0,0.1111,0.11,0.1053,0.105,0.1066,0.1024,0.1017,0.1008,0.0967,0.0959,0.0975,0.0972,0.0924,0.0919,0.0916,0.093,0.0893,0.0892,0.0891,0.0904,0.0906,0.0907,0,0,0,0,0,0,0.1113,0.1107,0.1056,0.1074,0.1066,0.1025,0.1015,0.1008,0.0999,0.0959,0.0952,0.0974,0.0922,0.0917,0.0913,0.0927,0.0891,0.089,0.0903,0.0905,0.0906,0.0959,0,0,0,0,0,0,0.1115,0.1108,0.1114,0.1074,0.1065,0.1054,0.1016,0.1007,0.0997,0.0992,0.0957,0.095,0.0921,0.0916,0.0912,0.0925,0.0889,0.0902,0.0904,0.0906,0.0956,0.0962,0.0968,0,0,0,0,0,0.1117,0.1132,0.1114,0.1109,0.1071,0.1055,0.105,0.1016,0.0998,0.1003,0.0977,0.0951,0.0926,0.0916,0.0911,0.0924,0.0901,0.0903,0.0906,0.0953,0.0961,0.0968,0,0,0,0,0,0,0.1175,0.1126,0.1106,0.1108,0.1086,0.1046,0.1051,0.1026,0.101,0.1006,0.0965,0.0957,0.0958,0.094,0.093,0.0936,0.091,0.0911,0.0947,0.0954,0.096,0.0965,0.0888,0,0,0,0,0,0.1188,0.1179,0.1136,0.1143,0.1132,0.1094,0.1086,0.1061,0.1037,0.1028,0.1002,0.098,0.0967,0.096,0.0946,0.0953,0.0944,0.0959,0.0965,0.097,0.0972,0.0974,0.098,0.0915,0.0915,0.0915,0,0,0.1215,0.1187,0.1184,0.1153,0.1133,0.1125,0.1086,0.1079,0.1073,0.1027,0.1021,0.1001,0.0974,0.0976,0.0975,0.0961,0.0988,0.0973,0.0978,0.0977,0.0977,0.0983,0.0989,0.0917,0.0916,0.0916,0,0,0.126,0.1237,0.1239,0.122,0.1189,0.1163,0.1164,0.1126,0.1111,0.1104,0.1069,0.1061,0.104,0.1021,0.101,0.1045,0.102,0.1041,0.1073,0.1075,0.108,0.1084,0.1096,0.1101,0.1044,0.1044,0.1044,0,0.1297,0.1282,0.1244,0.1239,0.1226,0.1182,0.1184,0.1167,0.1134,0.1127,0.1111,0.1082,0.1061,0.1057,0.1066,0.1057,0.1057,0.1046,0.1082,0.1086,0.1089,0.1101,0.1105,0.1047,0.1046,0.1046,0.1046,0,0.133,0.132,0.1325,0.1293,0.1281,0.128,0.1241,0.1233,0.1209,0.1185,0.1178,0.1151,0.113,0.1127,0.1104,0.1119,0.1111,0.1089,0.1063,0.1099,0.1109,0.1113,0.1051,0.105,0.1049,0.1048,0,0,0.1412,0.1356,0.1359,0.1343,0.1305,0.1297,0.1293,0.1271,0.1265,0.1244,0.1239,0.1221,0.12,0.1186,0.1161,0.1162,0.1191,0.114,0.1139,0.115,0.1206,0.1223,0.1228,0.1174,0.1174,0.1175,0.1208,0,0.145,0.1439,0.1404,0.1404,0.1394,0.1351,0.1347,0.1324,0.13,0.1289,0.1263,0.1251,0.1224,0.1215,0.1215,0.1188,0.1202,0.1185,0.117,0.117,0.1178,0.1234,0.1252,0.1284,0.1212,0.1212,0.1213,0,0.1494,0.1473,0.1472,0.1433,0.1428,0.1425,0.1401,0.139,0.1363,0.1345,0.1329,0.13,0.1293,0.1267,0.1257,0.1246,0.1237,0.1223,0.1224,0.1222,0.1194,0.1233,0.1294,0.1299,0.1218,0.1218,0.1218,0,0.1553,0.1525,0.1521,0.1508,0.1463,0.1462,0.1443,0.1414,0.1402,0.1382,0.1374,0.1353,0.1342,0.1327,0.1293,0.1277,0.1286,0.1258,0.1272,0.1273,0.1277,0.1277,0.1337,0.1271,0.127,0.127,0.127,0,0.16,0.1602,0.1546,0.1544,0.1543,0.1502,0.1503,0.148,0.1454,0.1446,0.1408,0.1401,0.1356,0.1345,0.1318,0.1313,0.1308,0.1294,0.1287,0.1298,0.13,0.1292,0.1289,0.1272,0.1271,0.1271,0.1271,0,0.1667,0.1631,0.1623,0.1579,0.1568,0.157,0.1533,0.1528,0.1502,0.1492,0.1487,0.1446,0.143,0.1394,0.1369,0.135,0.1353,0.134,0.1362,0.1357,0.1373,0.1373,0.1431,0.1437,0.1367,0.1368,0.1368,0,0.17,0.17,0.1655,0.1647,0.1629,0.1616,0.1603,0.1562,0.1551,0.1518,0.1517,0.1498,0.148,0.1457,0.1425,0.1405,0.1391,0.1413,0.1388,0.1398,0.1391,0.1392,0.1392,0.1419,0.142,0.1421,0.1421,0,0.1762,0.1743,0.1726,0.1703,0.1689,0.1668,0.1646,0.1641,0.1595,0.1584,0.1566,0.1553,0.1525,0.1507,0.1482,0.1462,0.1434,0.1429,0.1431,0.1443,0.1455,0.1448,0.1377,0.1428,0.1428,0.1427,0.1427,0.1427,0.1813,0.181,0.1778,0.176,0.1738,0.1718,0.1711,0.1682,0.1667,0.1641,0.1617,0.1602,0.1572,0.1536,0.1518,0.1505,0.1491,0.1495,0.1495,0.1497,0.1501,0.1457,0.1501,0.15,0.15,0.15,0.15,0,0.1873,0.1849,0.1833,0.1802,0.1788,0.1761,0.1734,0.1724,0.1711,0.1685,0.1668,0.1647,0.1628,0.1594,0.1572,0.1568,0.1555,0.1564,0.1564,0.156,0.1515,0.1516,0.1575,0.1575,0.1575,0.1575,0.1575,0.1575,0.1902,0.1895,0.1872,0.1854,0.1831,0.1814,0.1801,0.1782,0.1761,0.1739,0.1723,0.17,0.167,0.1646,0.1627,0.1617,0.1611,0.1624,0.1611,0.157,0.1563,0.1556,0.1556,0.1623,0.1623,0.1656,0.1656,0.1656]}]]